Regional Weather Roundup
Issued by NWS

Home | Current Version | Previous Version | Graphics & Text | Print | Product List | Glossary On
Versions: 1 2 3 4 5 6 7 8 9 10 11 12 13 14 15 16 17 18 19 20 21 22 23 24 25 26 27 28 29 30 31 32 33 34 35 36 37 38 39 40 41 42 43 44 45 46 47 48 49 50
000
ASUS43 KTOP 200508
RWRKS

WEATHER ROUNDUP FOR KANSAS
NATIONAL WEATHER SERVICE GOODLAND KS
1200 AM CDT SUN APR 20 2014

NOTE:  "FAIR" INDICATES FEW OR NO CLOUDS BELOW 12,000 FEET WITH NO
SIGNIFICANT WEATHER AND/OR OBSTRUCTIONS TO VISIBILITY.

KSZ001>006-013>018-027>032-041>047-200600-
NORTHWEST KANSAS

CITY           SKY/WX    TMP DP  RH WIND       PRES   REMARKS
GOODLAND       MOCLDY    51  47  86 NE7       30.01F
HAYS           MOCLDY    66  46  48 S14       29.98F
HILL CITY      CLOUDY    62  53  72 W5        29.95S
RUSSELL        MOCLDY    65  50  58 S14       29.96S
$$

KSZ061>065-074>080-084>089-200600-
SOUTHWEST KANSAS

CITY           SKY/WX    TMP DP  RH WIND       PRES   REMARKS
DODGE CITY     PTCLDY    59  47  64 S8        30.02R
ELKHART          N/A     58  44  60 S10         N/A
GARDEN CITY    PTCLDY    59  48  67 S9        30.00S
GREAT BEND     MOCLDY    63  48  59 S15       29.99R
LIBERAL        MOCLDY    61  46  59 S10       30.06R
PRATT          CLEAR     63  48  59 S13       30.03S
$$

KSZ066>073-081>083-090>101-200600-
SOUTHEAST KANSAS

CITY           SKY/WX    TMP DP  RH WIND       PRES   REMARKS
CHANUTE        MOCLDY    58  46  64 S8        30.10S
COFFEYVILLE    CLOUDY    60  46  59 S6        30.09F
HUTCHINSON     PTCLDY    63  48  58 S12       30.02S
MEDICINE LODGE   N/A     63  50  62 S8        30.03R
NEWTON         PTCLDY    63  45  51 S13       30.07S
PARSONS        MOCLDY    64  45  49 S3        30.10S
WICHITA INTL   PTCLDY    63  48  58 SE13      30.04S
WICHITA JABRA  CLEAR     62  48  60 S12       30.05S
WICHITA MCCONL CLEAR     62  51  66 SE9       30.06S
WINFIELD       CLEAR     62  49  62 SE8       30.08R
$$

KSZ007>012-019>026-033>040-048>060-102>105-200600-
NORTHEAST KANSAS

CITY           SKY/WX    TMP DP  RH WIND       PRES   REMARKS
CONCORDIA      PTCLDY    66  50  56 S20G25    29.97F
EMPORIA        CLEAR     60  46  59 S13       30.06S
LAWRENCE       PTCLDY    57  45  64 SE6       30.09R
MANHATTAN      CLEAR     65  46  50 S12       30.02F
OLATHE IND     PTCLDY    58  44  60 SE7       30.11R
OLATHE EXE     PTCLDY    59  44  57 SE3       30.09S
SALINA         CLEAR     67  48  50 S17       30.01S
TOPEKA BILLARD CLEAR     62  45  53 SE5       30.08R
TOPEKA FORBES  CLEAR     61  44  53 S8        30.07S
$$



USA.gov is the U.S. government's official web portal to all federal, state and local government web resources and services.